Preview of NWS' New Version of Forecast
This preview is not operational and should not be used for support decisions.

Regional Weather Roundup (RWR)

Issued by National Weather Service (NWS)

                            
000
ASUS43 KBIS 181910
RWRND 

NORTH DAKOTA REGIONAL WEATHER ROUNDUP
NATIONAL WEATHER SERVICE BISMARCK ND
100 PM CST MON FEB 18 2019

NOTE: "FAIR" INDICATES FEW OR NO CLOUDS BELOW 12,000 FEET WITH NO
SIGNIFICANT WEATHER AND/OR OBSTRUCTIONS TO VISIBILITY.


NDZ001>003-009>011-017-182000-
NORTHWEST NORTH DAKOTA
  
CITY           SKY/WX    TMP DP  RH WIND       PRES   REMARKS
WILLISTON      PTSUNNY    4  -4  69 W8        30.44S WCI  -9          
MINOT          CLOUDY     5  -5  63 NE3       30.46S                  
MINOT AFB      CLOUDY     4  -4  69 CALM      30.45F                  
$$
 
NDZ018>021-031>035-040>046-182000-
SOUTHWEST NORTH DAKOTA
  
CITY           SKY/WX    TMP DP  RH WIND       PRES   REMARKS
BISMARCK       MOSUNNY    7  -1  70 SW5       30.49F WCI  -2          
DICKINSON      PTSUNNY    2  -5  72 W7        30.36S WCI -11          
GARRISON         N/A      0  -4  83 CALM      30.45S                  
HETTINGER ARPT CLOUDY     1  -5  75 W8        30.38F HAZE    WCI -13  
$$
 
NDZ004>008-012>016-024-026-027-054-182000-
NORTHEAST NORTH DAKOTA
  
CITY           SKY/WX    TMP DP  RH WIND       PRES   REMARKS
GRAND FORKS    MOSUNNY    3  -5  70 NW9       30.56S WCI -12          
GRND FRKS AFB  MOSUNNY    1  -8  66 N8        30.55S WCI -13          
DEVILS LAKE    MOSUNNY   -3  -8  79 N5        30.51S WCI -13          
$$
 
NDZ022-023-025-028>030-036>039-047>053-182000-
SOUTHEAST NORTH DAKOTA
  
CITY           SKY/WX    TMP DP  RH WIND       PRES   REMARKS
FARGO          MOSUNNY    1  -6  72 NW7       30.56R WCI -12          
JAMESTOWN      CLOUDY     1  -5  75 N7        30.48F WCI -12          
$$